Location: Kershaw
(34.5481°N, 80.5823°W)
Time: 14:53:16
(UTC+00:00)

Vanguard 1 Rocket - Pass Details

Date: 05 October 2022
Orbit: 650 x 4225 km, 34.3° (Epoch: 08 December)

Event Time Altitude Azimuth Distance (km) Brightness Sun altitude
Rises 20:30:57 0° 201° (SSW) 8,064 12.9 28.5°
Reaches altitude 10° 20:37:38 10° 191° (S) 7,292 12.6 27.3°
Maximum altitude 20:58:08 31° 139° (SE) 5,606 11.4 23.5°
Drops below altitude 10° 21:15:00 10° 87° (E) 6,144 11.1 20.3°
Sets 21:19:46 0° 78° (ENE) 6,709 11.2 19.4°
